Weather History for Cheyenne, WY

Change the Weather History Date:

Friday, January 4, 2013

  Actual Average Record
Temperature  
Mean Temperature 32 °F 29 °F  
Max Temperature 46 °F 40 °F 62 °F (1956)
Min Temperature 18 °F 18 °F -27 °F (1942)
Degree Days  
Heating Degree Days 33 36  
Month to date heating degree days 174 145  
Since 1 July heating degree days 2876 3048  
Cooling Degree Days 0 0  
Month to date cooling degree days 0 0  
Year to date cooling degree days 0 0  
Moisture  
Dew Point 4 °F    
Average Humidity 34    
Maximum Humidity 46    
Minimum Humidity 22    
Precipitation  
Precipitation 0.00 in 0.01 in 0.81 in (1949)
Month to date precipitation T 0.05  
Year to date precipitation T 0.05  
Snow  
Snow 0.00 in 0.20 in 12.10 in (1949)
Month to date snowfall T 0.9  
Since 1 July snowfall 25.4 23.6  
Snow Depth T in    
Sea Level Pressure  
Sea Level Pressure 30.17 in    
Wind  
Wind Speed 11 mph (WNW)    
Max Wind Speed 23 mph    
Max Gust Speed 30 mph    
Visibility 10 miles    
Events      
T = Trace of Precipitation, MM = Missing Value Source: NWS Daily Summary

Daily Weather History Graph

Daily Weather History Graph

Search for Another Location

Airport:

Trip Planner

Search our weather history database for the weather conditions in past years. The results will help you decide how hot, cold, wet, or windy it might be!

Date:

Astronomy

Jan. 04, 2013 Rise Set
Actual Time 7:24 AM MST 4:44 PM MST
Civil Twilight 6:53 AM MST 5:15 PM MST
Nautical Twilight 6:19 AM MST 5:49 PM MST
Astronomical Twilight 5:45 AM MST 6:23 PM MST
Moon No Moon Rise 11:04 AM MST (1/4)
Length of Visible Light 10h 21m
Length of Day
9h 19m
Waning Gibbous, 54% of the Moon is Illuminated
Jan 4
Waning Gibbous
Jan 4
Last Quarter
Jan 11
New
Jan 18
First Quarter
Jan 26
Full

Hourly Weather History & Observations

Time (MST) Temp. Windchill Dew Point Humidity Pressure Visibility Wind Dir Wind Speed Gust Speed Precip Events Conditions
12:53 AM 21.9 °F 9.8 °F -0.9 °F 37% 30.27 in 10.0 mi WNW 12.7 mph - N/A   Clear
1:53 AM 21.0 °F 10.6 °F -0.9 °F 38% 30.27 in 10.0 mi WNW 9.2 mph - N/A   Clear
2:53 AM 21.0 °F 9.3 °F -0.9 °F 38% 30.27 in 10.0 mi WNW 11.5 mph - N/A   Clear
3:53 AM 21.9 °F 10.4 °F -0.0 °F 38% 30.27 in 10.0 mi WNW 11.5 mph - N/A   Clear
4:53 AM 19.0 °F 6.1 °F -0.0 °F 43% 30.28 in 10.0 mi West 12.7 mph - N/A   Clear
5:53 AM 19.0 °F 6.1 °F 1.0 °F 46% 30.29 in 10.0 mi West 12.7 mph - N/A   Clear
6:53 AM 19.9 °F 6.7 °F 1.0 °F 44% 30.28 in 10.0 mi WNW 13.8 mph - N/A   Clear
7:53 AM 19.9 °F 6.7 °F 1.9 °F 46% 30.29 in 10.0 mi West 13.8 mph - N/A   Clear
8:53 AM 26.1 °F 15.0 °F 5.0 °F 41% 30.26 in 10.0 mi WNW 12.7 mph - N/A   Clear
9:53 AM 32.0 °F 23.6 °F 9.0 °F 38% 30.23 in 10.0 mi WNW 10.4 mph - N/A   Clear
10:53 AM 39.0 °F 34.0 °F 12.9 °F 34% 30.18 in 10.0 mi WNW 6.9 mph - N/A   Clear
11:53 AM 43.0 °F 38.2 °F 12.9 °F 30% 30.12 in 10.0 mi NW 8.1 mph - N/A   Clear
12:53 PM 45.0 °F 40.6 °F 10.0 °F 24% 30.08 in 10.0 mi NW 8.1 mph - N/A   Clear
1:53 PM 45.0 °F 41.8 °F 8.1 °F 22% 30.07 in 10.0 mi NW 5.8 mph - N/A   Clear
2:53 PM 42.1 °F 39.2 °F 12.0 °F 29% 30.08 in 10.0 mi SSW 4.6 mph - N/A   Clear
3:53 PM 39.9 °F 36.7 °F 12.0 °F 32% 30.08 in 10.0 mi WSW 4.6 mph - N/A   Clear
4:53 PM 36.0 °F 28.0 °F 9.0 °F 33% 30.10 in 10.0 mi NW 11.5 mph - N/A   Clear
5:53 PM 32.0 °F 23.6 °F 6.1 °F 34% 30.13 in 10.0 mi NW 10.4 mph - N/A   Clear
6:53 PM 24.1 °F 16.0 °F 6.1 °F 46% 30.18 in 10.0 mi WNW 6.9 mph - N/A   Clear
7:53 PM 28.9 °F 19.2 °F 1.0 °F 30% 30.15 in 10.0 mi NW 11.5 mph - N/A   Clear
8:53 PM 28.9 °F 16.9 °F -0.0 °F 29% 30.12 in 10.0 mi NNW 17.3 mph 23.0 mph N/A   Clear
9:53 PM 26.1 °F 12.0 °F -0.9 °F 31% 30.12 in 10.0 mi NW 20.7 mph 26.5 mph N/A   Clear
10:53 PM 27.0 °F 14.7 °F -0.0 °F 31% 30.07 in 10.0 mi NW 16.1 mph 26.5 mph N/A   Clear
11:53 PM 25.0 °F 13.1 °F -0.9 °F 33% 30.07 in 10.0 mi NW 13.8 mph 21.9 mph N/A   Clear